[[{"header":{"parameterUnit":"m.s-1","parameterCategory":1,"la1":30.2991,"la2":30.254,"lo1":-89.0895,"lo2":-89.0444,"dy":0.0017,"dx":0.0017,"nx":28,"ny":28,"refTime":"2024-04-10T03:00:00:Z","depth":0,"parameterNumber":2,"parameterNumberName":"U-component_of_WINDS"},"data":[0,0,0,0,0,0,0,0,0,0,0,0,0,0,0,0,0,0,0,0,0,0,0,0,0,0,0,0,0,0,0,0,0,0,0,0,0,0,0,0,0,0,0,0,0,0,0,0,0,0,0,0,0,0,0,0,0,0,1.9482,1.9481,0,1.9356,1.9354,1.9353,1.9247,1.9246,1.9244,1.9243,1.9112,1.9109,1.9107,0,0,0,0,0,0,0,0,0,0,0,0,0,1.9631,1.9629,1.9483,1.9481,1.9479,1.9356,1.9354,1.9353,1.9247,1.9246,1.9244,1.9243,1.9112,1.911,1.9107,0,0,0,0,0,0,0,0,0,0,0,0,0,1.9542,1.9628,1.9483,1.9412,1.9404,1.9357,1.9354,1.9352,1.9247,1.9246,1.9244,1.9242,1.9113,1.911,1.9106,1.9118,0,0,1.9095,1.9093,0,0,0,0,0,0,0,0,1.9547,1.9536,1.9424,1.9417,1.9408,1.9315,1.9358,1.9274,1.9248,1.9307,1.9243,1.9241,1.9181,1.9171,1.9151,1.9112,1.9106,1.9095,1.9092,1.9091,1.909,0,0,0,0,0,0,0,1.9553,1.9541,1.9432,1.9422,1.9413,1.9386,1.9371,1.9342,1.9255,1.9302,1.9294,1.928,1.9176,1.9155,1.9147,1.9104,1.9095,1.9092,1.9089,1.9088,1.9067,1.9069,0,0,0,0,0,0,1.9571,1.9547,1.9436,1.9429,1.9475,1.9384,1.9368,1.9347,1.9255,1.9239,1.9282,1.9276,1.9162,1.9152,1.9142,1.9149,1.9091,1.9087,1.9085,1.9065,1.9067,1.9069,0,0,0,0,0,0,1.9574,1.9562,1.9441,1.9486,1.9468,1.9384,1.9361,1.9345,1.9324,1.924,1.9224,1.9276,1.916,1.9148,1.9125,1.9143,1.9086,1.9082,1.9063,1.9066,1.9068,1.9163,0,0,0,0,0,0,1.9579,1.9564,1.9568,1.9486,1.9466,1.9427,1.9362,1.9344,1.9318,1.9309,1.9231,1.9216,1.9158,1.9131,1.9121,1.9137,1.908,1.9061,1.9065,1.9067,1.9158,1.9169,1.9178,0,0,0,0,0,1.9584,1.9599,1.9568,1.9556,1.947,1.9428,1.9416,1.935,1.932,1.9323,1.9269,1.9218,1.9143,1.9129,1.9118,1.9133,1.906,1.9064,1.9067,1.9154,1.9167,1.9177,0,0,0,0,0,0,1.9683,1.9587,1.9552,1.9541,1.9494,1.941,1.9412,1.9366,1.9326,1.9319,1.9238,1.9221,1.9207,1.9167,1.9154,1.9139,1.9095,1.9096,1.9164,1.9176,1.9186,1.9194,1.9077,0,0,0,0,0,1.9704,1.9679,1.9596,1.9594,1.9572,1.9497,1.9476,1.9429,1.9377,1.9356,1.93,1.925,1.9215,1.9194,1.9157,1.9153,1.9133,1.9157,1.9167,1.9176,1.9177,1.9171,1.918,1.9081,1.9081,1.9081,0,0,1.9746,1.969,1.9679,1.9613,1.957,1.9546,1.948,1.9457,1.9437,1.9352,1.9327,1.9285,1.9224,1.921,1.9201,1.9177,1.9201,1.918,1.9188,1.9184,1.9176,1.9185,1.9193,1.9084,1.9083,1.9083,0,0,1.9809,1.9765,1.9758,1.9718,1.9656,1.9605,1.9604,1.9528,1.9497,1.9471,1.9406,1.9382,1.9323,1.9282,1.9254,1.9304,1.9255,1.9294,1.9344,1.9339,1.9347,1.9354,1.937,1.9377,1.9296,1.9297,1.9297,0,1.9868,1.9829,1.976,1.9741,1.9713,1.9637,1.9628,1.9592,1.9521,1.9503,1.9478,1.9403,1.9356,1.9332,1.9344,1.9324,1.9319,1.9301,1.9352,1.9358,1.9362,1.9377,1.9383,1.9302,1.9301,1.93,1.93,0,1.9905,1.9879,1.9881,1.9815,1.9787,1.9774,1.9702,1.9683,1.964,1.9592,1.9566,1.9508,1.9458,1.9449,1.9406,1.9418,1.9405,1.9367,1.9321,1.9378,1.939,1.9395,1.9309,1.9307,1.9305,1.9304,0,0,2.0024,1.9922,1.9923,1.9892,1.9819,1.9796,1.978,1.9732,1.9716,1.967,1.9653,1.9606,1.957,1.9538,1.949,1.9486,1.9527,1.9448,1.9445,1.9463,1.9536,1.9564,1.9571,1.9496,1.9497,1.9497,1.9541,0,2.0074,2.0039,1.9978,1.9963,1.9937,1.9865,1.985,1.9803,1.9759,1.973,1.9681,1.9648,1.9604,1.9584,1.9578,1.9524,1.9541,1.952,1.9477,1.9477,1.9493,1.9578,1.9607,1.965,1.9545,1.9546,1.9546,0,2.0126,2.0085,2.0069,1.9997,1.9984,1.9972,1.9923,1.9897,1.9842,1.981,1.9776,1.9723,1.97,1.9661,1.9628,1.9615,1.9594,1.9566,1.9566,1.9557,1.9514,1.957,1.9663,1.9669,1.9553,1.9553,1.9552,0,2.0213,2.0154,2.0136,2.0112,2.0028,2.0022,1.9986,1.993,1.9905,1.9862,1.9845,1.9801,1.9776,1.9742,1.9678,1.9655,1.9652,1.9607,1.9624,1.9625,1.9624,1.9625,1.9713,1.9615,1.9615,1.9615,1.9615,0,2.0273,2.0265,2.0174,2.0162,2.0151,2.0081,2.0072,2.003,1.998,1.9959,1.9894,1.9876,1.9794,1.9766,1.9716,1.9696,1.9686,1.9658,1.9644,1.9662,1.9666,1.9646,1.964,1.9616,1.9616,1.9616,1.9615,0,2.0367,2.0305,2.0281,2.0205,2.0185,2.018,2.0114,2.01,2.0053,2.0027,2.0017,1.9942,1.9905,1.984,1.9784,1.9751,1.974,1.9718,1.9759,1.975,1.977,1.9768,1.9846,1.9852,1.9753,1.9754,1.9755,0,2.0408,2.04,2.0324,2.0306,2.0273,2.0245,2.0219,2.0151,2.0127,2.0064,2.0058,2.0016,1.9979,1.9924,1.9864,1.9821,1.9796,1.9827,1.9789,1.9807,1.9794,1.9795,1.9793,1.9834,1.9836,1.9837,1.9838,0,2.0487,2.0458,2.0424,2.0381,2.0353,2.0315,2.0274,2.0262,2.0184,2.016,2.0122,2.0094,2.0038,1.9997,1.9946,1.9908,1.986,1.9851,1.9852,1.9869,1.9892,1.9878,1.978,1.9849,1.9848,1.9847,1.9846,1.9846,2.0554,2.0544,2.0489,2.0454,2.0416,2.0379,2.0362,2.0314,2.0282,2.0231,2.0193,2.0158,2.0103,2.0029,1.9995,1.9966,1.9943,1.9946,1.9946,1.9947,1.9953,1.9899,1.9957,1.9956,1.9956,1.9956,1.9955,0,2.0628,2.059,2.0559,2.0504,2.0477,2.0436,2.0388,2.0367,2.0338,2.0292,2.0257,2.0214,2.0174,2.0112,2.0068,2.0056,2.0033,2.0047,2.0045,2.0037,1.9977,1.9979,2.0066,2.0066,2.0066,2.0066,2.0066,2.0066,2.0663,2.0644,2.0608,2.0569,2.053,2.0496,2.0473,2.0438,2.0401,2.0356,2.0323,2.0284,2.0231,2.0182,2.0144,2.0126,2.0112,2.0132,2.0108,2.0052,2.0042,2.0032,2.0034,2.013,2.0131,2.017,2.0171,2.0171]},{"header":{"parameterUnit":"m.s-1","parameterCategory":1,"la1":30.2991,"la2":30.254,"lo1":-89.0895,"lo2":-89.0444,"dy":0.0017,"dx":0.0017,"nx":28,"ny":28,"refTime":"2024-04-10T03:00:00:Z","depth":0,"parameterNumber":3,"parameterNumberName":"V-component_of_WINDS"},"data":[0,0,0,0,0,0,0,0,0,0,0,0,0,0,0,0,0,0,0,0,0,0,0,0,0,0,0,0,0,0,0,0,0,0,0,0,0,0,0,0,0,0,0,0,0,0,0,0,0,0,0,0,0,0,0,0,0,0,7.4548,7.4551,0,7.4843,7.4846,7.485,7.4922,7.492,7.4918,7.4916,7.5217,7.5226,7.5236,0,0,0,0,0,0,0,0,0,0,0,0,0,7.4048,7.4057,7.4548,7.4552,7.4555,7.4842,7.4847,7.4851,7.4922,7.492,7.4918,7.4915,7.5214,7.5225,7.5237,0,0,0,0,0,0,0,0,0,0,0,0,0,7.4296,7.4059,7.4547,7.4626,7.4636,7.4842,7.4847,7.4852,7.4923,7.492,7.4917,7.4914,7.521,7.5224,7.5239,7.5387,0,0,7.5283,7.529,0,0,0,0,0,0,0,0,7.4282,7.4314,7.4611,7.4621,7.4632,7.4843,7.4781,7.5031,7.4924,7.4814,7.4916,7.4913,7.5095,7.5119,7.518,7.5401,7.5414,7.5285,7.5294,7.53,7.5304,0,0,0,0,0,0,0,7.4264,7.4302,7.4665,7.4615,7.4628,7.4647,7.4679,7.4828,7.4967,7.4823,7.4829,7.4863,7.51,7.5166,7.5188,7.5418,7.5284,7.5297,7.5306,7.5312,7.578,7.5783,0,0,0,0,0,0,7.4234,7.4287,7.4655,7.4673,7.4446,7.4658,7.4694,7.4778,7.4965,7.4991,7.4865,7.4865,7.5142,7.5171,7.5199,7.5387,7.53,7.5314,7.5322,7.5776,7.578,7.5784,0,0,0,0,0,0,7.4223,7.4266,7.4643,7.4482,7.4532,7.467,7.4764,7.4785,7.4851,7.4997,7.5022,7.4907,7.5141,7.5178,7.5341,7.5399,7.532,7.5334,7.5772,7.5777,7.5782,7.5764,0,0,0,0,0,0,7.4208,7.4261,7.4319,7.4483,7.454,7.478,7.4767,7.4793,7.4877,7.488,7.5043,7.5067,7.5142,7.5318,7.5355,7.5417,7.5345,7.5767,7.5774,7.5781,7.576,7.5768,7.5774,0,0,0,0,0,7.419,7.43,7.4321,7.4365,7.4614,7.4783,7.4816,7.4899,7.4881,7.494,7.5035,7.5062,7.5386,7.5334,7.5376,7.5444,7.5764,7.5772,7.578,7.5756,7.5766,7.5774,0,0,0,0,0,0,7.4138,7.4323,7.4348,7.4515,7.4633,7.4795,7.4872,7.4906,7.5031,7.5029,7.5127,7.5163,7.532,7.5398,7.5337,7.5599,7.5575,7.5592,7.5542,7.5553,7.556,7.5538,7.5357,0,0,0,0,0,7.4146,7.4268,7.4423,7.4555,7.4613,7.4732,7.4809,7.4864,7.4989,7.5039,7.5145,7.5266,7.5395,7.5478,7.5605,7.5771,7.5809,7.5839,7.5846,7.5852,7.5865,7.5962,7.5978,7.5811,7.5811,7.5811,0,0,7.4164,7.428,7.435,7.4548,7.4646,7.477,7.4774,7.4904,7.4998,7.5059,7.522,7.5302,7.5443,7.5609,7.5687,7.5679,7.592,7.5862,7.5865,7.5876,7.5972,7.5988,7.6002,7.5816,7.5815,7.5814,0,0,7.426,7.4359,7.4482,7.4581,7.4729,7.4808,7.4838,7.4996,7.5053,7.5216,7.5266,7.5379,7.5598,7.5699,7.5778,7.5916,7.5947,7.5954,7.5993,7.6087,7.61,7.6112,7.6164,7.6181,7.5967,7.5967,7.5967,0,7.4263,7.4452,7.454,7.4671,7.4757,7.4819,7.4946,7.5037,7.5218,7.5277,7.5265,7.5546,7.5645,7.5836,7.587,7.5932,7.597,7.5936,7.6091,7.6104,7.6117,7.6167,7.6186,7.5967,7.5967,7.5967,7.5967,0,7.445,7.4581,7.4662,7.4839,7.4934,7.5061,7.5169,7.5255,7.5303,7.5383,7.555,7.5672,7.5826,7.5876,7.5922,7.6075,7.6066,7.6071,7.6049,7.6131,7.618,7.62,7.5968,7.5968,7.5967,7.5967,0,0,7.452,7.4746,7.4774,7.4857,7.5027,7.513,7.526,7.5413,7.5486,7.561,7.5723,7.591,7.5917,7.6007,7.6066,7.6147,7.6252,7.6144,7.6149,7.6161,7.6432,7.6428,7.6448,7.6274,7.6278,7.6281,7.6421,0,7.4638,7.4875,7.496,7.5154,7.5278,7.5341,7.5455,7.5572,7.5652,7.5769,7.5856,7.5988,7.5986,7.6042,7.6126,7.6222,7.6308,7.6213,7.6382,7.6387,7.6345,7.6474,7.6469,7.6594,7.644,7.6443,7.6446,0,7.4807,7.4936,7.5143,7.5302,7.5357,7.5458,7.5606,7.5716,7.5852,7.5904,7.6006,7.606,7.6201,7.617,7.6367,7.63,7.6374,7.6432,7.6439,7.6459,7.6421,7.6498,7.6636,7.6656,7.6476,7.6474,7.6472,0,7.484,7.5065,7.5219,7.5287,7.5475,7.5545,7.5626,7.5759,7.5846,7.5976,7.6034,7.6177,7.6256,7.6367,7.6458,7.6427,7.6648,7.6623,7.6696,7.6694,7.674,7.6736,7.6894,7.6786,7.6785,7.6785,7.6784,0,7.4964,7.5089,7.5237,7.5331,7.5474,7.5571,7.571,7.5795,7.5914,7.6027,7.609,7.6195,7.6309,7.643,7.6502,7.6656,7.669,7.6738,7.6756,7.6733,7.6727,7.6783,7.6778,7.679,7.6789,7.6788,7.6787,0,7.5024,7.5128,7.5301,7.5466,7.551,7.5608,7.575,7.5845,7.5928,7.6071,7.611,7.6241,7.6387,7.6489,7.6676,7.6725,7.6891,7.6907,7.6845,7.6855,7.6922,7.6915,7.7123,7.7156,7.7023,7.7024,7.7025,0,7.5097,7.5195,7.5371,7.5452,7.5534,7.5664,7.5754,7.5854,7.5945,7.6109,7.6185,7.6335,7.646,7.669,7.6802,7.6946,7.6968,7.7031,7.699,7.6965,7.6971,7.6965,7.6976,7.7037,7.7038,7.7038,7.7039,0,7.5215,7.5263,7.5391,7.5538,7.5644,7.5765,7.5886,7.5948,7.607,7.617,7.632,7.6418,7.661,7.6759,7.6915,7.6999,7.7041,7.7051,7.7076,7.7054,7.7015,7.704,7.6864,7.7046,7.7045,7.7045,7.7044,7.7044,7.5286,7.5377,7.5517,7.5658,7.576,7.5873,7.5972,7.6068,7.6196,7.6361,7.6412,7.6569,7.6705,7.6918,7.7005,7.713,7.7126,7.7162,7.7171,7.7179,7.7179,7.6995,7.7159,7.7158,7.7158,7.7158,7.7158,0,7.5409,7.5503,7.5632,7.5801,7.5913,7.5943,7.6079,7.6171,7.6308,7.6432,7.6555,7.673,7.6875,7.7,7.7151,7.7227,7.725,7.7264,7.726,7.7279,7.7172,7.7137,7.7243,7.7243,7.7243,7.7243,7.7243,7.7243,7.5487,7.5644,7.5709,7.5918,7.6012,7.6166,7.6242,7.6347,7.6447,7.6639,7.6761,7.6842,7.6967,7.7129,7.7265,7.7298,7.7351,7.7361,7.7398,7.7296,7.7286,7.7277,7.7244,7.7371,7.7371,7.7495,7.7496,7.7497]}]]